TimePDT,TemperatureF,Dew PointF,Humidity,Sea Level PressureIn,VisibilityMPH,Wind Direction,Wind SpeedMPH,Gust SpeedMPH,PrecipitationIn,Events,Conditions,WindDirDegrees,DateUTC
12:56 AM,53.1,30.9,43,29.88,10.0,SSE,12.7,-,N/A,,Overcast,150,2012-03-24 07:56:00
1:56 AM,53.1,30.0,41,29.87,10.0,SE,19.6,26.5,N/A,,Overcast,140,2012-03-24 08:56:00
2:56 AM,53.1,30.0,41,29.86,10.0,SE,21.9,-,N/A,,Mostly Cloudy,140,2012-03-24 09:56:00
3:56 AM,52.0,34.0,50,29.84,10.0,SE,19.6,-,N/A,,Overcast,140,2012-03-24 10:56:00
4:47 AM,46.4,42.8,87,29.88,5.0,West,16.1,-,0.01,Rain,Light Rain,270,2012-03-24 11:47:00
4:56 AM,46.0,42.1,86,29.88,7.0,WNW,11.5,-,0.01,Rain,Light Rain,290,2012-03-24 11:56:00
5:20 AM,44.6,41.0,87,29.88,8.0,WNW,12.7,19.6,0.00,Rain,Light Rain,290,2012-03-24 12:20:00
5:56 AM,45.0,41.0,86,29.90,6.0,West,9.2,-,0.00,Rain,Light Rain,280,2012-03-24 12:56:00
6:37 AM,44.6,39.2,81,29.90,9.0,West,8.1,-,0.00,Rain,Light Rain,260,2012-03-24 13:37:00
6:56 AM,45.0,39.9,82,29.91,9.0,West,6.9,-,0.00,Rain,Light Rain,270,2012-03-24 13:56:00
7:56 AM,45.0,39.9,82,29.92,5.0,Calm,Calm,-,0.03,Rain,Rain,0,2012-03-24 14:56:00
8:56 AM,46.0,41.0,83,29.92,9.0,ESE,4.6,-,0.04,Rain,Light Rain,120,2012-03-24 15:56:00
9:56 AM,46.0,41.0,83,29.92,9.0,ESE,4.6,-,0.02,Rain,Light Rain,120,2012-03-24 16:56:00
10:56 AM,46.9,41.0,80,29.92,10.0,East,4.6,-,0.00,,Overcast,100,2012-03-24 17:56:00
11:20 AM,46.4,42.8,87,29.92,3.0,East,6.9,-,0.01,Rain,Light Rain,90,2012-03-24 18:20:00
11:46 AM,46.4,42.8,87,29.92,7.0,East,8.1,-,0.03,Rain,Light Rain,80,2012-03-24 18:46:00
11:56 AM,46.9,43.0,86,29.92,7.0,East,5.8,-,0.03,Rain,Light Rain,80,2012-03-24 18:56:00
12:56 PM,46.9,43.0,86,29.91,8.0,ENE,4.6,-,0.03,Rain,Light Rain,70,2012-03-24 19:56:00
1:24 PM,46.4,42.8,87,29.91,5.0,NE,5.8,-,0.02,Rain,Light Rain,40,2012-03-24 20:24:00
1:56 PM,48.0,44.1,86,29.90,6.0,East,3.5,-,0.06,Rain,Light Rain,80,2012-03-24 20:56:00
2:56 PM,48.0,43.0,83,29.88,5.0,Calm,Calm,-,0.06,Rain,Rain,0,2012-03-24 21:56:00
3:56 PM,48.0,43.0,83,29.87,6.0,ENE,8.1,-,0.04,Rain,Light Rain,60,2012-03-24 22:56:00
4:23 PM,48.2,42.8,82,29.86,4.0,East,3.5,-,0.02,Rain,Rain,90,2012-03-24 23:23:00
4:56 PM,48.0,43.0,83,29.85,5.0,ENE,8.1,-,0.06,Rain,Rain,70,2012-03-24 23:56:00
5:56 PM,48.0,43.0,83,29.85,6.0,East,5.8,-,0.07,Rain,Light Rain,100,2012-03-25 00:56:00
6:56 PM,46.9,42.1,83,29.84,6.0,ESE,4.6,-,0.08,Rain,Light Rain,120,2012-03-25 01:56:00
7:56 PM,46.9,42.1,83,29.84,9.0,East,4.6,-,0.07,Rain,Light Rain,80,2012-03-25 02:56:00
8:56 PM,46.9,39.9,77,29.85,8.0,Calm,Calm,-,0.05,Rain,Rain,0,2012-03-25 03:56:00
9:18 PM,46.4,39.2,76,29.84,7.0,Calm,Calm,-,0.03,Rain,Rain,0,2012-03-25 04:18:00
9:56 PM,46.0,39.9,79,29.86,5.0,Calm,Calm,-,0.09,Rain,Rain,0,2012-03-25 04:56:00
10:48 PM,46.4,39.2,76,29.85,8.0,Calm,Calm,-,0.10,Rain,Rain,0,2012-03-25 05:48:00
10:56 PM,46.0,39.9,79,29.85,6.0,Calm,Calm,-,0.11,Rain,Rain,0,2012-03-25 05:56:00
11:56 PM,46.0,39.9,79,29.83,6.0,NE,10.4,-,0.16,Rain,Rain,50,2012-03-25 06:56:00